SCP
0 0 0 0 0 0 0 0 0 0 0 0 0 0 0 0 0 0 0 0 0 0 0 0 0 0 0 0 0 0 0 0 0 0 0 0 0 0 0 0 0 0 0 0 0 0 0 0 0
0 0 0 0 0 0 0 0 0 0 0 0 0 0 0 0 0 0 0 0 0 0 0 0 0 0 0 0 0 0 0 0 0 0 0 0 0 0 0 0 0 0 0 0 0 0 0 0 0
0 0 0 0 0 0 0 0 0 0 0 0 0 0 0 0 0 0 0 0 0 0 0 0 0 0 0 0 0 0 0 0 0 0 0 0 0 0 0 0 0 0 0 0 0 0 0 0 0
0 0 0 0 0 0 0 0 0 0 0 0 0 0 0 0 0 0 0 0 0 0 0 0 0 0 0 0 0 0 0 0 0 0 0 0 0 0 0 0 0 0 0 0 0 0 0 0 0
0 0 0 0 0 0 0 0 0 0 0 0 0 0 0 0 0 0 0 0 0 0 0 0 0 0 0 0 0 0 0 0 0 0 0 0 0 0 0 0 0 0 0 0 0 0 0 0 0
0 0 0 0 0 0 0 0 0 0 0 0 0 0 0 0 0 0 0 0 0 0 0 0 0 0 0 0 0 0 0 0 0 0 0 0 0 0 0 0 0 0 0 0 0 0 0 0 0
0 0 0 0 0 0 0 0 0 0 0 0 0 0 0 0 0 0 0 0 0 0 0 0 0 0 0 0 0 0 0 0 0 0 0 0 0 0 0 0 0 0 0 0 0 0 0 0 0
0 0 0 0 0 0 0 0 0 0 0 0 0 0 0 0 0 0 0 0 0 0 0 0 0 0 0 0 0 0 0 0 0 0 0 0 0 0 0 0 0 0 0 0 0 0 0 0 0
0 0 0 0 0 0 0 0 0 0 0 0 0 0 0 0 0 0 0 0 0 0 0 0 0 0 0 0 0 0 0 0 0 0 0 0 0 0 0 0 0 0 0 0 0 0 0 0 0
0 0 0 0 0 0 0 0 0 0 0 0 0 0 0 0 0 0 0 0 0 0 0 0 0 0 0 0 0 0 0 0 0 0 0 0 0 0 0 0 0 0 0 0 0 0 0 0 0
0 0 0 0 0 0 0 0 0 0 0 0 0 0 0 0 0 0 0 0 0 0 0 0 0 0 0 0 0 0 0 0 0 0 0 0 0 0 0 0 0 0 0 0 0 0 0 0 0
0 0 0 0 0 0 0 0 0 0 0 0 0 0 0 0 0 0 0 0 0 0 0 0 0 0 0 0 0 0 0 0 0 0 0 0 0 0 0 0 0 0 0 0 0 0 0 0 0
0 0 0 0 0 0 0 0 0 0 0 0 0 0 0 0 0 0 0 0 0 0 0 0 0 0 0 0 0 0 0 0 0 0 0 0 0 0 0 0 0 0 0 0 0 0 0 0 0
0 0 0 0 0 0 0 0 0 0 0 0 0 0 0 0 0 0 0 0 0 0 0 0 0 0 0 0 0 0 0 0 0 0 0 0 0 0 0 0 0 0 0 0 0 0 0 0 0
0 0 0 0 0 0 0 0 0 0 0 0 0 0 0 0 0 0 0 0 0 0 0 0 0 0 0 0 0 0 0 0 0 0 0 0 0 0 0 0 0 0 0 0 0 0 0 0 0
0 0 0 0 0 0 0 0 0 0 0 0 0 0 0 0 0 0 0 0 0 0 0 0 0 0 0 0 0 0 0 0 0 0 0 0 0 0 0 0 0 0 0 0 0 0 0 0 0
0 0 0 0 0 0 0 0 0 0 0 0 0 0 0 0 0 0 0 0 0 0 0 0 0 0 0 0 0 0 0 0 0 0 0 0 0 0 0 0 0 0 0 0 0 0 0 0 0
0 0 0 0 0 0 0 0 0 0 0 0 0 0 0 0 0 0 0 0 0 0 0 0 0 0 0 0 0 0 0 0 0 0 0 0 0 0 0 0 0 0 0 0 0 0 0 0 0
0 0 0 0 0 0 0 0 0 0 0 0 0 0 0 0 0 0 0 0 0 0 0 0 0 0 0 0 0 0 0 0 0 0 0 0 0 0 0 0 0 0 0 0 0 0 0 0 0
0 0 0 0 0 0 0 0 0 0 0 0 0 0 0 0 0 0 0 0 0 0 0 0 0 0 0 0 0 0 0 0 0 0 0 0 0 0 0 0 0 0 0 0 0 0 0 0 0
0 0 0 0 0 0 0 0 0 0 0 0 0 0 0 0 0 0 0 0 0 0 0 0 0 0 0 0 0 0 0 0 0 0 0 0 0 0 0 0 0 0 0 0 0 0 0 0 0
0 0 0 0 0 0 0 0 0 0 0 0 0 0 0 0 0 0 0 0 0 0 0 0 0 0 0 0 0 0 0 0 0 0 0 0 0 0 0 0 0 0 0 0 0 0 0 0 0
0 0 0 0 0 0 0 0 0 0 0 0 0 0 0 0 0 0 0 0 0 0 0 0 0 0 0 0 0 0 0 0 0 0 0 0 0 0 0 0 0 0 0 0 0 0 0 0 0
0 0 0 0 0 0 0 0 0 0 0 0 0 0 0 0 0 0 0 0 0 0 0 0 0 0 0 0 0 0 0 0 0 0 0 0 0 0 0 0 0 0 0 0 0 0 0 0 0
0 0 0 0 0 0 0 0 0 0 0 0 0 0 0 0 0 0 0 0 0 0 0 0 0 0 0 0 0 0 0 0 0 0 0 0 0 0 0 0 0 0 0 0 0 0 0 0 0
0 0 0 0 0 0 0 0 0 0 0 0 0 0 0 0 0 0 0 0 0 0 0 0 0 0 0 0 0 0 0 0 0 0 0 0 0 0 0 0 0 0 0 0 0 0 0 0 0
0 0 0 0 0 0 0 0 0 0 0 0 0 0 0 0 0 0 0 0 0 0 0 0 0 0 0 0 0 0 0 0 0 0 0 0 0 0 0 0 0 0 0 0 0 0 0 0 0
0 0 0 0 0 0 0 0 0 0 0 0 0 0 0 0 0 0 0 0 0 0 0 0 0 0 0 0 0 0 0 0 0 0 0 0 0 0 0 0 0 0 0 0 0 0 0 0 0
0 0 0 0 0 0 0 0 0 0 0 0 0 0 0 0 0 0 0 0 0 0 0 0 0 0 0 0 0 0 0 0 0 0 0 0 0 0 0 0 0 0 0 0 0 0 0 0 0
0 0 0 0 0 0 0 0 0 0 0 0 0 0 0 0 0 0 0 0 0 0 0 0 0 0 0 0 0 0 0 0 0 0 0 0 0 0 0 0 0 0 0 0 0 0 0 0 0
Wind_Speed
9 9 6 2 2 1 5 5 6 7 7 8 8 9 12 12 9 7 1 4 7 8 9 10 11 11 11 11 11 11 11 11 11 11 11 12 12 12 12 12 12 12 11 11 11 11 11 11 11
9 5 3 2 2 2 5 6 9 9 6 5 8 10 12 11 10 7 3 4 7 9 9 10 11 11 11 11 11 11 11 11 11 11 11 12 12 12 12 12 12 12 12 12 12 12 12 12 11
11 6 4 2 3 5 6 7 8 8 6 5 7 10 9 7 8 5 4 4 8 10 10 10 11 11 11 10 10 10 11 11 11 11 11 11 11 12 11 11 11 12 12 12 12 12 12 12 12
5 3 3 1 7 9 7 7 6 8 7 7 8 9 8 8 6 6 4 6 9 10 10 9 11 11 10 10 10 10 10 11 11 11 11 11 11 11 11 12 12 12 12 12 12 12 12 12 11
3 2 1 4 7 8 7 6 7 7 7 9 10 11 9 7 7 7 4 6 8 8 10 10 11 11 10 10 10 10 10 10 10 10 10 10 11 11 11 12 12 12 12 12 12 12 12 11 11
2 2 0 4 7 7 6 5 6 8 8 8 9 10 7 6 5 5 5 6 7 7 9 9 11 11 11 10 10 10 9 9 9 9 9 10 10 11 11 11 11 12 12 12 11 11 11 10 9
2 2 2 5 6 6 6 6 7 7 8 7 6 9 7 6 4 4 5 6 6 6 7 8 8 9 10 10 9 9 9 8 8 8 8 8 9 10 11 11 11 11 11 10 10 9 9 8 7
2 2 2 4 5 6 6 6 7 8 8 7 6 7 7 7 5 5 5 4 5 5 4 6 7 8 8 7 8 8 7 7 6 7 6 6 7 8 10 10 10 9 8 7 6 6 6 5 5
2 1 3 4 4 6 7 6 6 7 8 9 10 10 10 9 7 5 4 4 4 4 3 4 5 6 6 7 8 6 6 5 5 4 5 5 3 4 6 8 8 7 6 4 3 3 2 2 1
0 2 5 6 6 6 6 6 5 6 7 8 9 10 10 7 5 4 4 4 4 3 3 3 4 4 4 4 4 3 4 3 3 2 3 1 2 4 6 7 6 5 3 2 2 2 2 2 0
2 4 5 6 7 7 6 5 5 5 5 6 8 9 8 6 4 4 4 4 4 3 3 3 3 3 3 3 2 1 2 1 1 2 4 3 3 3 3 2 2 2 2 1 1 1 1 2 2
4 5 6 6 6 5 5 5 5 6 6 7 8 8 7 5 4 4 4 4 4 4 3 3 3 2 3 3 3 1 1 1 2 2 4 3 2 2 2 2 1 1 1 2 2 2 4 5 5
4 5 6 5 4 4 5 5 5 6 6 7 9 8 7 5 3 3 5 5 4 5 3 3 2 2 2 3 1 2 3 2 2 2 2 3 2 2 2 2 2 2 2 2 2 3 4 5 5
4 5 4 4 3 3 4 4 4 6 6 6 7 6 6 5 4 4 4 4 4 5 4 3 2 2 3 3 2 3 3 2 2 2 1 3 2 2 2 3 2 2 2 2 2 3 3 4 4
4 4 4 4 4 3 2 3 4 7 6 6 6 6 6 5 3 3 3 3 4 5 5 4 2 2 2 4 4 3 2 2 2 2 2 3 3 3 3 2 2 2 2 3 3 3 3 3 4
5 5 4 5 4 4 3 2 5 6 6 5 5 6 5 4 4 3 3 2 4 5 5 5 3 2 4 4 3 2 2 3 2 2 2 3 3 3 3 2 1 2 2 2 2 2 3 3 3
6 5 5 5 5 4 4 2 6 6 6 5 4 6 6 4 3 3 3 3 3 4 5 5 4 3 4 3 3 2 3 2 2 2 2 3 3 3 3 2 1 3 2 2 2 3 2 3 2
3 3 2 3 5 4 4 4 6 7 6 5 5 5 6 5 4 3 3 3 3 3 4 5 4 4 4 2 2 2 2 2 2 2 2 3 3 3 2 1 2 3 2 2 2 2 2 2 1
4 3 2 1 4 3 5 4 5 7 5 4 4 5 4 5 6 4 3 3 3 2 3 4 4 4 3 2 2 2 1 1 1 1 2 2 2 2 3 2 2 2 2 1 1 2 2 1 1
5 4 3 1 2 3 4 3 5 6 6 4 3 3 3 3 4 4 3 3 3 2 2 3 3 4 4 3 2 2 1 1 1 1 1 2 2 2 2 2 2 2 2 2 2 2 1 1 1
5 4 4 2 2 5 5 5 5 6 6 6 4 2 4 4 4 5 3 2 2 2 2 2 2 4 4 4 2 2 2 1 1 1 1 1 1 1 2 1 2 1 2 1 1 1 1 1 1
4 3 5 5 5 4 6 3 3 6 6 6 5 3 3 3 3 4 4 3 2 2 2 2 2 4 4 4 3 2 2 1 1 1 1 1 1 1 2 1 1 1 1 1 0 1 1 1 1
4 4 6 7 6 7 7 4 3 6 7 6 6 5 4 3 3 4 4 3 3 2 2 2 3 4 4 4 4 2 1 1 1 1 1 1 1 1 2 1 1 1 1 1 1 1 1 1 0
5 7 9 8 6 7 8 5 2 3 6 6 7 6 5 3 3 4 4 4 3 3 2 1 2 3 3 4 4 4 3 2 1 1 1 0 1 1 1 1 1 1 1 1 1 1 1 1 0
7 5 3 4 5 5 4 3 3 6 7 7 6 5 5 4 4 3 4 4 3 3 2 1 1 2 2 3 4 4 3 3 2 1 1 1 1 1 1 1 1 1 1 1 1 1 1 1 1
6 6 4 4 4 3 1 1 6 8 8 7 6 6 4 4 4 4 4 3 3 3 2 1 1 1 2 2 2 3 3 2 2 2 2 1 1 1 2 1 1 0 1 1 1 1 0 1 1
6 6 6 7 9 7 3 4 5 6 7 6 6 6 4 3 3 4 4 3 3 3 2 1 1 0 1 1 2 2 2 2 2 2 2 1 1 1 2 2 1 1 1 1 1 1 0 0 0
7 7 6 5 4 5 4 2 4 6 5 5 5 4 4 3 3 3 3 3 3 2 2 1 2 1 0 0 1 2 2 2 2 1 1 2 1 1 1 1 1 1 1 1 1 1 1 1 0
6 7 6 5 5 4 4 1 3 5 5 4 4 4 4 3 3 3 3 3 2 2 2 2 1 1 0 0 0 1 1 1 1 1 1 1 2 2 2 2 2 1 1 1 1 2 2 2 1
5 6 6 4 5 5 5 1 5 5 5 3 4 4 3 3 3 3 3 3 2 2 2 2 1 1 1 1 1 1 1 1 1 1 1 1 1 2 2 2 2 1 1 1 1 2 2 2 2
Wind_Direction
271 248 238 239 254 125 63 59 62 55 56 49 45 58 64 50 51 81 91 52 72 81 81 70 63 64 64 63 64 64 65 68 69 72 73 74 73 71 69 68 66 64 64 63 61 58 56 54 49
274 263 255 239 265 85 74 69 67 63 64 68 61 63 70 64 70 90 85 61 76 81 77 72 69 67 66 67 69 68 68 69 70 73 75 74 73 71 71 69 68 67 66 64 61 61 58 55 51
260 259 263 260 33 64 84 80 85 83 68 64 72 59 53 59 68 88 101 99 87 84 84 79 76 73 72 72 72 74 73 71 73 76 78 77 75 73 71 69 68 68 67 65 64 63 61 57 52
260 255 249 58 64 65 82 98 97 91 73 64 79 76 68 54 72 94 105 96 91 93 92 90 85 80 78 77 75 75 75 74 74 77 81 79 75 73 72 70 68 68 68 66 64 63 61 57 53
241 256 226 89 81 80 78 84 90 84 78 68 78 88 84 73 83 95 91 91 92 98 104 101 95 91 85 79 78 80 80 79 79 80 82 81 78 76 74 71 70 69 68 67 63 63 60 56 51
279 264 135 94 93 87 81 75 79 85 91 89 92 98 93 104 97 98 98 92 94 100 110 111 108 103 96 89 84 83 86 87 86 86 87 87 83 80 76 74 73 71 69 68 66 65 62 57 49
294 308 82 103 105 98 81 59 64 75 74 68 84 100 113 112 112 111 103 98 102 104 115 130 130 116 106 101 97 95 95 97 98 99 99 98 93 88 83 78 77 76 73 71 69 68 65 57 47
297 310 67 89 98 93 88 76 64 70 72 61 60 97 122 130 137 114 103 97 98 94 102 127 133 133 130 121 114 113 113 114 117 121 124 123 116 106 98 90 83 82 80 78 77 76 72 61 42
277 14 56 73 91 96 97 92 85 80 87 76 67 80 112 128 132 124 118 105 90 84 78 90 109 119 125 126 131 139 140 145 145 147 160 163 158 128 104 99 103 99 96 97 100 107 107 92 49
58 56 63 65 81 98 98 91 101 101 91 91 88 96 112 120 123 123 114 102 89 84 82 84 85 98 104 103 132 154 147 151 173 167 148 148 88 88 98 114 118 125 132 160 212 236 226 241 114
83 81 74 71 77 97 98 94 99 98 91 100 110 113 120 128 129 127 119 108 102 86 63 81 90 88 98 101 98 86 109 134 132 84 95 86 78 97 107 131 135 151 169 316 20 318 353 65 55
88 78 78 80 78 92 99 102 94 80 81 94 110 116 124 133 139 138 126 115 114 98 71 66 66 84 96 95 91 84 71 78 66 44 76 79 60 60 76 74 52 55 47 28 19 26 37 40 44
101 96 92 93 93 100 107 103 94 99 99 100 111 119 124 136 140 137 127 129 134 125 126 102 92 89 94 94 87 97 76 49 69 41 66 94 89 80 79 78 51 45 39 38 29 45 48 42 39
95 102 108 123 125 121 121 121 123 116 121 122 123 128 137 142 146 133 120 120 132 128 132 116 99 82 85 95 83 71 79 79 67 48 16 93 92 88 86 75 59 43 35 37 47 55 58 61 51
136 145 150 166 167 146 146 155 144 138 148 143 141 135 131 137 128 116 118 131 122 120 119 111 103 93 85 85 71 66 62 70 66 58 14 52 81 84 78 71 68 52 41 39 38 50 55 67 65
201 198 182 173 181 165 210 182 139 144 157 155 153 141 140 143 143 135 122 119 108 110 113 111 104 75 70 75 74 66 70 67 63 58 31 25 53 78 82 76 65 66 58 48 45 59 62 57 55
216 215 188 162 173 176 201 169 139 155 161 162 162 151 151 152 150 137 135 132 114 116 121 118 111 95 82 81 95 67 64 62 65 65 50 33 35 58 76 65 75 68 56 41 34 46 69 73 69
230 235 204 162 160 193 211 175 161 166 172 172 167 163 160 161 163 145 136 118 106 116 123 125 129 118 109 98 82 78 67 63 50 61 59 51 42 42 65 59 52 69 66 48 50 50 47 75 73
299 292 274 152 143 210 232 199 172 167 172 183 171 165 161 165 161 154 144 132 127 136 127 125 133 128 120 109 88 82 80 79 70 77 72 67 65 48 66 54 46 65 73 55 50 70 51 49 82
279 279 272 203 162 232 258 223 166 168 172 181 182 165 151 148 131 125 140 153 154 139 128 136 138 134 122 114 119 121 105 96 96 87 76 66 76 74 75 77 65 66 77 55 48 58 48 354 54
270 284 292 277 248 239 254 250 192 178 173 167 176 171 151 156 142 139 140 126 135 133 121 123 132 123 120 130 118 97 75 52 58 68 82 83 89 87 94 82 87 89 89 90 77 87 66 9 328
282 302 290 279 266 255 224 242 186 171 168 163 162 159 140 136 143 137 134 126 118 126 138 142 146 133 129 126 115 126 131 145 144 118 120 98 85 113 106 93 92 106 102 110 138 104 104 80 336
291 295 280 270 264 267 256 249 187 164 159 155 152 150 143 136 127 116 118 126 127 111 123 165 154 142 138 138 137 137 130 151 120 110 103 126 112 106 114 113 88 85 104 121 106 90 86 95 71
281 270 258 252 254 254 245 235 190 155 141 135 135 138 136 124 117 111 112 107 102 100 95 107 158 144 147 148 148 152 154 147 105 94 104 124 114 117 126 125 131 139 139 120 111 124 139 132 80
253 270 273 237 225 238 225 212 122 99 99 99 105 108 114 116 112 106 102 100 94 99 104 107 114 139 154 165 163 155 160 160 152 159 155 181 146 143 153 153 177 172 137 112 109 111 138 143 133
264 259 267 287 286 292 255 161 114 110 104 102 102 98 97 104 108 109 110 109 110 107 99 106 120 154 172 178 164 155 156 161 163 176 165 191 163 154 145 144 121 81 99 119 113 93 117 114 122
275 272 278 280 285 283 222 130 129 131 127 119 113 110 105 97 98 105 109 110 115 120 126 127 115 74 181 179 156 149 157 159 161 172 160 158 161 154 142 152 151 161 144 127 124 143 199 98 99
266 289 290 276 288 284 283 213 166 149 131 128 126 120 112 100 94 100 104 110 114 122 145 154 133 126 134 175 178 146 156 162 163 167 168 157 162 142 150 163 160 160 156 149 135 169 182 146 190
241 248 259 277 277 288 290 32 88 124 124 126 117 110 112 110 102 94 97 97 94 111 125 132 120 111 136 188 154 142 150 150 151 157 153 162 166 159 168 183 176 167 168 163 166 197 200 201 205
269 274 274 273 282 287 286 122 106 103 95 102 109 106 108 111 110 104 97 93 96 116 137 141 142 162 197 210 206 171 129 133 141 169 168 179 189 177 179 186 180 185 176 177 190 214 215 201 202